Tracking 30995 objects as of 7-Jul-2025
HD Live streaming from Space Station
objects crossing your sky now

GOES 2

Track GOES 2 now!
GOES 2 is classified as:


NORAD ID: 10061
Int'l Code: 1977-048A
Perigee: 35,991.7 km
Apogee: 36,086.8 km
Inclination: 7.2 °
Period: 1,448.7 minutes
Semi major axis: 42410 km
RCS: 2.5118 m2 (large)
Launch date: June 16, 1977
Source: United States (US)
Launch site: AIR FORCE EASTERN TEST RANGE (AFETR)
Your satellite tracking list
OBJECT M
Track 1 satellite(s)




NASA's NSSDC Master Catalog

Two Line Element Set (TLE):
1 10061U 77048A   25186.66707615 -.00000250  00000-0  00000-0 0  9992
2 10061   7.2438 296.2333 0011209  49.6299 334.4936  0.99402267 42832
Source of the keplerian elements: AFSPC